Location: Unspecified
(0.0000°N, 0.0000°E)
Time: 11:14:56
(UTC+00:00)

SEEDS - Visible Passes

Search period start: 14 December 2019 00:00
Search period end: 24 December 2019 00:00
Orbit: 585 x 604 km, 97.5° (Epoch: 13 December)

Date Brightness Start Highest point End Pass type
(mag) Time Alt. Az. Time Alt. Az. Time Alt. Az.
14 Dec ? 04:46:02 10° NE 04:49:11 20° ESE 04:52:20 10° SSE visible
14 Dec ? 18:27:35 10° SW 18:29:23 13° WSW 18:31:09 10° WNW visible
15 Dec ? 04:55:05 10° NE 04:58:43 28° ESE 05:02:21 10° SSE visible
16 Dec ? 05:04:18 10° NNE 05:08:14 38° ESE 05:12:11 10° S visible
17 Dec ? 05:13:38 10° NNE 05:17:46 54° ESE 05:21:55 10° S visible
18 Dec ? 05:23:05 10° NNE 05:27:18 77° E 05:31:33 10° S visible
22 Dec ? 04:28:49 10° E 04:30:04 11° ESE 04:31:19 10° ESE visible
23 Dec ? 04:37:03 10° ENE 04:39:35 16° ESE 04:42:07 10° SE visible
